Location: Frizzleburg
(41.0764°N, 80.4548°W)
Time: 20:20:19
(UTC+00:00)

Cosmos 372 Rocket - Pass Details

Date: 17 November 2019
Orbit: 739 x 767 km, 74.1° (Epoch: 06 December)

Event Time Altitude Azimuth Distance (km) Brightness Sun altitude
Rises 11:08:06 0° 210° (SSW) 3,195 7.1 -12.1°
Reaches altitude 10° 11:10:31 10° 215° (SW) 2,270 6.3 -11.6°
Maximum altitude 11:15:33 55° 293° (WNW) 902 4.0 -10.7°
Drops below altitude 10° 11:20:35 10° 11° (N) 2,267 6.4 -9.8°
Sets 11:23:00 0° 16° (NNE) 3,191 7.2 -9.4°
